Temperature
2 3 3 4 4 4 4 4 4 4 4 4 4 4 5 5 5 5 5 5 5 5 4 4 4 4 4 4 4 4 4 4 4 4 4 4 4 4 4 4 4 4 4
2 2 3 3 3 3 3 3 3 3 4 4 4 4 4 4 4 4 4 4 4 4 4 4 4 4 4 4 4 4 4 4 3 3 3 3 3 3 4 4 4 4 4
1 1 2 2 2 2 3 3 3 3 3 3 3 3 3 4 4 4 4 4 3 4 3 4 3 3 3 3 3 3 3 3 3 3 3 3 3 3 3 3 3 3 3
0 1 1 2 2 2 2 2 2 2 2 2 2 3 3 3 3 3 3 3 3 3 3 3 3 3 3 3 3 3 3 3 3 2 2 2 2 3 2 3 3 3 3
-0 0 1 1 1 1 1 2 2 2 2 2 2 2 2 2 2 2 2 2 2 2 2 2 2 2 2 2 2 2 2 2 2 2 2 2 2 2 2 2 2 2 2
-1 -0 -0 0 1 1 1 1 1 1 1 1 1 1 1 1 1 1 1 1 2 2 2 2 2 2 2 2 2 2 2 2 1 1 1 1 2 2 1 1 1 1 1
-1 -1 -1 -1 -0 -0 0 0 0 0 1 1 1 1 1 1 1 1 1 1 1 1 1 1 1 1 1 1 1 1 1 1 1 1 1 1 1 1 1 1 1 1 1
-2 -2 -1 -1 -1 -1 -1 -1 -0 -0 -0 0 0 0 0 0 0 0 0 0 0 0 1 1 1 1 1 1 1 1 1 0 0 0 0 0 0 0 0 0 0 0 0
-2 -2 -2 -2 -2 -1 -1 -1 -1 -1 -1 -1 -1 -1 -1 -0 -0 -0 -0 -0 -0 -0 -0 -0 -0 -0 -0 -0 0 0 -0 -0 -0 -0 -0 -0 -0 -0 -0 -0 -0 -0 -1
-3 -3 -2 -2 -2 -2 -2 -2 -2 -1 -1 -1 -1 -1 -1 -1 -1 -1 -1 -1 -1 -1 -1 -1 -1 -1 -1 -1 -1 -1 -1 -1 -1 -1 -1 -1 -1 -1 -1 -1 -1 -1 -1
-4 -3 -3 -3 -3 -3 -3 -2 -2 -2 -2 -2 -2 -2 -2 -2 -2 -2 -2 -2 -2 -2 -2 -1 -2 -1 -1 -1 -1 -1 -1 -1 -1 -1 -1 -1 -1 -1 -1 -1 -1 -1 -2
-4 -4 -4 -3 -3 -3 -3 -3 -3 -3 -3 -3 -3 -3 -3 -3 -3 -2 -2 -2 -2 -2 -2 -2 -2 -2 -2 -2 -2 -2 -2 -2 -2 -2 -2 -2 -2 -2 -2 -2 -2 -2 -2
-5 -4 -4 -4 -4 -4 -4 -4 -4 -4 -4 -4 -4 -3 -3 -3 -3 -3 -3 -3 -3 -3 -3 -3 -3 -3 -3 -3 -2 -2 -2 -2 -2 -3 -3 -3 -2 -2 -3 -3 -3 -3 -3
-5 -5 -5 -4 -4 -4 -4 -4 -4 -4 -4 -4 -4 -4 -4 -4 -4 -4 -4 -3 -3 -3 -3 -3 -3 -3 -3 -3 -3 -3 -3 -3 -3 -3 -3 -3 -3 -3 -3 -3 -3 -3 -3
-6 -5 -5 -5 -5 -5 -5 -5 -5 -5 -5 -5 -5 -5 -4 -4 -4 -4 -4 -4 -4 -4 -4 -4 -4 -4 -4 -4 -4 -3 -4 -4 -4 -4 -4 -4 -4 -4 -4 -4 -4 -4 -4
-6 -6 -6 -5 -6 -6 -6 -6 -6 -6 -5 -5 -5 -5 -5 -5 -5 -5 -5 -5 -5 -4 -4 -4 -4 -4 -4 -4 -4 -4 -4 -4 -4 -4 -4 -4 -4 -4 -5 -5 -5 -5 -5
-7 -6 -6 -6 -6 -6 -6 -6 -6 -6 -6 -6 -6 -6 -5 -5 -5 -5 -5 -5 -5 -5 -5 -5 -5 -5 -5 -5 -5 -5 -5 -5 -5 -5 -5 -5 -5 -5 -5 -5 -5 -5 -5
-7 -7 -7 -7 -7 -7 -7 -7 -7 -7 -6 -6 -6 -6 -6 -6 -6 -6 -6 -6 -6 -6 -6 -6 -6 -6 -6 -6 -6 -6 -6 -6 -6 -6 -6 -6 -6 -6 -6 -6 -6 -6 -6
-8 -8 -8 -8 -8 -7 -7 -7 -7 -7 -7 -7 -7 -7 -7 -6 -6 -6 -6 -6 -6 -6 -6 -6 -6 -6 -6 -6 -6 -6 -6 -6 -6 -6 -6 -6 -6 -6 -6 -6 -6 -6 -6
-8 -8 -8 -8 -8 -8 -8 -8 -8 -8 -8 -8 -7 -7 -7 -7 -7 -7 -7 -7 -7 -7 -7 -7 -7 -7 -7 -7 -7 -7 -7 -7 -7 -7 -7 -7 -7 -7 -7 -7 -7 -7 -7
-9 -9 -9 -9 -8 -8 -8 -8 -8 -8 -8 -8 -8 -8 -8 -8 -8 -8 -8 -8 -8 -8 -8 -8 -8 -8 -8 -7 -7 -7 -7 -8 -7 -7 -7 -7 -7 -7 -7 -7 -7 -7 -7
-10 -9 -9 -9 -9 -9 -9 -9 -9 -9 -9 -9 -8 -8 -9 -8 -8 -8 -8 -8 -8 -8 -8 -8 -8 -8 -8 -8 -8 -8 -8 -8 -8 -8 -8 -8 -8 -8 -8 -7 -7 -8 -8
-10 -10 -10 -10 -10 -9 -9 -9 -9 -9 -9 -9 -9 -9 -9 -9 -9 -9 -9 -9 -9 -9 -9 -9 -9 -8 -8 -8 -8 -8 -8 -8 -8 -8 -8 -8 -8 -8 -8 -8 -8 -8 -8
-11 -11 -10 -10 -10 -10 -10 -10 -10 -10 -10 -10 -9 -9 -9 -9 -9 -9 -9 -9 -9 -9 -9 -9 -9 -9 -9 -9 -9 -9 -9 -8 -8 -8 -8 -8 -8 -8 -8 -8 -8 -8 -8
-11 -11 -11 -11 -11 -11 -10 -10 -10 -10 -10 -10 -10 -10 -10 -10 -10 -10 -10 -10 -10 -9 -9 -9 -9 -9 -9 -9 -9 -9 -9 -9 -9 -9 -9 -9 -8 -8 -8 -8 -8 -8 -8
-12 -11 -11 -11 -11 -11 -11 -11 -11 -11 -11 -11 -11 -10 -10 -10 -10 -10 -10 -10 -10 -10 -10 -10 -10 -9 -9 -9 -9 -9 -9 -9 -9 -9 -9 -9 -9 -9 -9 -9 -9 -9 -9
Wind_Speed
3 3 3 2 2 2 2 2 2 3 3 2 2 2 2 2 2 2 2 2 2 2 1 2 2 2 2 2 2 2 2 2 3 2 1 1 1 1 1 2 3 4 4
4 3 3 3 2 3 2 3 3 3 3 2 2 2 2 2 2 2 2 2 2 2 2 2 1 1 1 1 1 2 2 3 3 3 2 1 1 2 1 2 3 4 5
4 3 3 3 3 2 2 2 3 3 3 3 2 2 2 2 2 1 2 2 2 2 2 2 2 1 2 1 1 1 2 2 2 2 2 1 1 1 1 1 2 2 4
4 4 3 3 3 3 2 2 3 3 3 3 3 3 2 2 1 1 2 2 2 1 1 1 1 2 2 2 2 2 1 1 1 1 1 1 1 1 0 1 2 2 2
4 4 3 3 3 3 3 3 3 3 2 2 3 2 2 2 1 2 2 2 2 2 1 1 1 2 1 2 2 2 2 2 1 1 1 1 1 1 2 1 2 2 2
4 4 3 3 3 3 3 2 2 3 3 3 2 2 2 1 2 2 1 1 1 1 1 1 1 1 1 1 1 1 2 3 3 2 2 2 3 2 2 2 2 2 3
4 4 3 2 3 3 2 2 2 2 2 3 3 2 2 2 3 2 2 1 1 1 1 1 1 1 1 1 1 1 1 1 2 3 3 4 4 3 3 3 3 3 4
4 4 4 3 3 3 3 2 2 2 2 2 2 2 2 2 3 2 2 1 1 1 1 1 1 0 0 1 1 1 1 1 1 1 2 3 3 3 3 4 4 3 2
4 4 3 3 2 2 2 2 2 1 2 2 2 2 2 2 3 2 2 1 1 1 0 0 1 1 0 0 1 1 0 1 1 1 2 2 2 3 2 1 1 2 3
5 4 4 3 2 2 2 2 2 1 1 1 2 2 2 1 3 3 3 1 1 1 1 1 0 0 1 1 1 2 2 2 1 1 1 2 2 3 3 2 2 2 2
5 4 4 3 3 2 2 2 2 1 1 1 2 2 2 2 3 4 4 2 1 1 1 1 1 0 1 1 1 1 2 2 1 1 1 1 2 2 2 2 1 2 3
5 4 4 4 3 3 2 2 2 2 2 1 1 2 2 2 3 4 4 3 2 1 1 1 1 2 2 2 1 1 1 1 0 1 1 1 2 2 2 3 2 2 2
5 4 4 4 3 3 2 2 2 2 2 1 1 1 2 2 3 4 5 4 3 2 1 2 2 3 3 2 1 2 2 1 1 1 1 2 2 2 2 2 2 2 2
4 4 3 3 3 3 3 2 2 2 2 2 1 1 1 2 2 2 2 3 4 3 2 2 3 3 3 2 2 2 1 1 1 1 1 2 2 1 1 2 2 2 1
4 4 3 3 2 2 3 2 2 2 2 2 1 1 1 2 3 4 3 2 2 2 2 2 2 2 2 2 2 1 1 1 1 1 1 1 2 2 2 2 2 1 2
4 4 3 2 2 2 2 3 5 4 4 4 4 3 2 3 4 4 4 4 4 3 2 1 1 2 2 2 2 2 2 1 1 1 1 1 2 2 2 2 2 2 3
4 4 3 3 2 2 2 2 3 4 5 5 5 5 5 5 5 4 4 4 3 3 2 1 1 1 2 2 2 2 2 2 1 1 1 2 2 2 2 2 2 3 3
4 4 4 3 2 2 2 2 2 2 3 3 4 5 5 5 6 5 4 4 3 2 1 1 1 2 2 2 2 2 2 2 2 2 2 2 2 2 2 3 3 3 3
4 3 3 3 2 2 2 2 2 2 2 2 3 4 5 5 6 6 5 2 2 2 2 2 2 2 2 2 3 3 3 3 3 2 2 2 3 3 3 3 4 5 4
3 5 5 3 2 2 2 2 2 2 2 2 2 2 3 3 3 3 3 3 2 2 2 2 2 3 2 2 3 3 3 3 3 3 3 3 3 3 4 4 4 4 4
3 4 6 3 2 2 2 2 2 2 2 2 2 3 5 2 2 3 3 3 3 3 3 3 3 3 3 3 3 3 4 4 4 4 4 4 4 4 4 4 4 4 4
3 3 2 2 2 2 2 2 2 2 2 2 2 3 5 3 2 2 3 3 3 3 3 3 3 3 3 3 3 3 4 4 4 4 4 4 4 4 4 4 4 4 4
2 3 3 2 2 3 3 2 2 2 2 2 3 3 3 2 2 3 3 3 3 3 4 4 4 4 5 5 5 4 4 5 5 5 5 5 5 4 4 5 5 5 5
2 3 3 2 2 2 2 2 2 3 2 2 3 3 3 3 3 3 3 3 3 4 4 4 5 6 7 7 7 7 7 8 8 7 7 6 6 5 5 5 5 5 5
2 2 2 2 2 2 2 2 2 2 3 3 3 3 3 3 3 4 4 4 4 4 5 6 6 7 8 9 9 9 10 11 10 9 8 7 6 6 5 5 5 4 4
3 3 2 2 2 2 2 2 3 3 3 3 3 3 3 4 4 4 4 4 4 5 6 6 8 9 10 10 11 12 12 12 11 11 8 6 5 5 5 4 5 4 4
Wind_Direction
21 31 44 51 65 70 81 83 81 66 76 104 119 133 138 137 140 144 153 147 154 152 148 154 170 167 177 187 191 189 187 184 219 255 229 269 256 236 247 244 238 241 247
15 29 43 51 66 74 76 73 69 69 61 78 87 117 111 115 120 141 153 149 157 161 158 147 170 172 173 189 178 186 198 200 193 223 236 250 254 240 225 232 250 251 249
15 24 47 54 57 71 73 81 70 71 63 61 59 115 113 106 112 133 150 142 150 157 155 159 172 165 178 176 173 195 208 205 192 201 231 242 277 282 268 285 267 265 268
8 16 36 50 55 64 68 81 83 77 76 68 56 61 76 86 93 118 124 124 123 107 104 134 158 174 188 189 193 194 183 172 171 189 227 252 269 281 227 264 279 275 280
8 9 19 41 50 57 60 70 73 75 72 72 66 56 48 54 70 99 112 125 126 110 87 98 134 144 182 187 191 186 173 175 181 202 228 250 257 261 248 244 263 279 284
5 5 10 36 48 51 53 56 68 70 66 66 67 65 51 44 52 52 81 124 140 138 124 69 59 100 126 122 138 164 179 190 201 211 229 241 251 260 261 253 251 273 276
360 4 9 25 38 39 46 54 69 73 75 68 60 60 55 54 48 43 41 93 136 156 161 139 17 6 37 98 65 55 38 301 222 217 226 245 249 247 244 247 247 250 254
3 5 6 17 25 31 40 46 44 67 79 74 66 65 54 39 34 39 36 69 106 122 154 170 164 193 281 140 124 99 46 334 290 252 222 248 267 267 250 246 243 250 269
3 358 0 6 18 29 33 30 33 54 65 71 70 64 53 22 17 28 25 82 91 79 181 171 163 157 247 218 155 156 297 305 307 242 254 279 293 295 293 280 264 264 275
355 355 357 1 12 24 20 18 17 49 82 77 59 54 53 30 14 16 10 72 74 52 61 74 30 252 226 225 197 188 217 259 270 302 320 319 325 322 308 268 232 243 264
350 356 360 1 4 14 11 15 28 38 64 65 55 44 45 29 14 17 17 32 60 48 31 16 6 8 310 299 276 226 230 250 261 263 290 303 316 323 333 329 284 233 239
351 357 360 1 5 11 22 20 25 38 52 49 47 36 34 27 22 21 19 16 8 24 8 355 356 354 323 310 298 265 272 298 278 274 295 298 304 300 307 326 310 290 261
352 354 355 1 8 10 19 19 21 24 30 24 32 33 20 20 20 14 11 11 4 359 357 351 346 348 344 332 341 317 304 277 236 249 269 278 278 288 319 332 338 339 332
350 350 350 359 5 10 10 8 12 10 11 5 359 9 8 357 357 357 357 4 8 6 356 359 2 2 358 345 333 322 296 254 231 243 259 281 302 315 311 314 306 296 298
345 345 349 356 359 4 6 2 352 346 333 329 322 314 313 312 316 325 330 336 336 330 334 333 341 347 354 343 327 316 306 298 292 288 286 298 305 306 312 319 318 317 283
338 342 344 343 349 359 2 5 7 360 357 354 349 340 330 331 322 321 328 329 325 322 329 317 324 334 332 335 337 325 316 307 295 274 270 272 280 284 292 308 307 297 284
329 331 334 336 341 345 346 352 354 2 7 5 2 359 355 349 345 338 341 344 342 344 343 330 321 315 315 317 318 315 300 290 282 265 262 269 272 273 280 284 284 286 280
323 327 332 327 326 330 332 329 331 341 344 348 354 357 360 359 355 351 352 1 1 359 337 308 302 305 304 302 301 303 304 302 289 279 273 266 264 266 271 269 267 270 271
323 323 324 320 317 319 326 330 337 338 335 334 340 348 355 356 360 1 2 8 351 334 327 320 314 307 301 297 296 295 289 287 282 270 268 268 261 259 262 261 259 269 268
323 329 331 324 320 328 332 329 329 329 328 327 329 332 339 344 350 353 355 353 344 329 324 321 315 308 303 296 294 294 290 282 278 269 266 262 261 257 259 260 258 262 261
321 324 332 330 324 322 324 317 313 312 317 322 324 324 332 343 343 342 340 339 334 326 324 320 312 304 295 290 285 282 281 281 274 268 264 259 258 259 259 257 255 253 259
315 315 317 315 321 324 322 315 312 311 316 320 324 329 338 351 344 337 332 330 328 327 322 317 311 306 299 291 286 283 282 282 280 273 266 261 257 259 259 257 258 259 257
310 311 314 320 324 326 334 332 321 314 315 320 326 332 336 337 332 329 327 326 325 324 324 319 312 308 305 299 290 279 275 277 277 274 268 264 258 255 254 256 256 258 255
300 302 306 313 318 319 319 320 321 320 321 323 327 329 331 331 327 324 322 321 319 318 319 316 310 306 305 306 301 291 282 279 278 272 263 258 257 256 252 252 251 251 251
304 299 298 295 297 301 306 308 310 314 318 321 323 327 330 329 326 323 323 322 318 314 313 314 313 310 308 305 301 297 295 292 288 280 266 257 252 247 247 247 250 251 250
306 297 288 286 286 288 293 298 304 311 313 315 318 319 319 319 319 320 323 322 321 318 316 314 312 311 310 309 306 305 304 302 297 291 281 263 249 245 242 247 242 238 237
Height
1473 1473 1473 1474 1475 1476 1477 1478 1479 1480 1481 1482 1484 1485 1487 1488 1490 1491 1492 1493 1495 1496 1498 1499 1501 1503 1504 1505 1507 1508 1509 1510 1510 1511 1513 1514 1515 1515 1516 1516 1517 1517 1517
1472 1472 1472 1473 1474 1474 1475 1476 1477 1477 1478 1480 1481 1482 1483 1485 1487 1488 1489 1490 1492 1493 1494 1496 1498 1499 1500 1502 1503 1503 1505 1506 1507 1507 1508 1510 1511 1511 1511 1512 1512 1513 1513
1471 1471 1470 1471 1472 1472 1473 1474 1475 1476 1477 1477 1478 1479 1481 1482 1484 1485 1486 1487 1488 1490 1491 1493 1494 1496 1497 1498 1499 1500 1501 1502 1503 1503 1504 1505 1506 1507 1507 1508 1508 1508 1509
1470 1469 1469 1469 1470 1471 1471 1472 1473 1474 1475 1475 1476 1477 1478 1480 1481 1482 1483 1484 1486 1487 1488 1490 1491 1492 1493 1494 1495 1496 1497 1498 1499 1499 1500 1501 1502 1503 1503 1503 1503 1504 1504
1469 1468 1468 1468 1469 1469 1470 1471 1471 1472 1473 1474 1474 1475 1476 1477 1478 1479 1481 1482 1483 1484 1485 1486 1488 1489 1490 1491 1492 1492 1493 1494 1495 1495 1496 1496 1497 1498 1498 1498 1499 1499 1499
1468 1467 1467 1467 1467 1468 1468 1469 1470 1470 1471 1472 1473 1474 1474 1475 1476 1477 1478 1479 1480 1481 1482 1483 1484 1486 1487 1488 1489 1489 1490 1491 1491 1491 1492 1492 1492 1493 1494 1494 1494 1494 1494
1468 1467 1467 1467 1466 1466 1467 1468 1468 1469 1469 1470 1471 1472 1472 1473 1474 1475 1476 1476 1477 1478 1479 1480 1481 1482 1483 1484 1485 1486 1487 1487 1488 1489 1488 1488 1489 1489 1490 1490 1490 1490 1490
1467 1466 1466 1466 1466 1466 1466 1466 1467 1467 1468 1468 1469 1470 1470 1471 1472 1473 1473 1474 1474 1475 1476 1477 1478 1479 1480 1481 1482 1482 1483 1483 1484 1485 1485 1485 1485 1486 1486 1486 1486 1486 1485
1467 1466 1465 1466 1465 1465 1464 1465 1466 1466 1466 1467 1467 1468 1469 1469 1470 1470 1471 1471 1472 1473 1474 1475 1476 1476 1477 1478 1479 1479 1479 1480 1481 1481 1481 1481 1482 1482 1482 1482 1482 1481 1480
1466 1466 1465 1465 1464 1464 1464 1464 1464 1465 1465 1465 1466 1467 1467 1467 1468 1468 1469 1469 1469 1470 1471 1472 1473 1474 1474 1475 1476 1476 1476 1476 1477 1477 1477 1478 1478 1478 1478 1478 1477 1477 1476
1466 1466 1465 1464 1464 1463 1463 1463 1463 1463 1464 1464 1464 1465 1466 1466 1466 1467 1467 1467 1468 1468 1469 1469 1470 1471 1471 1472 1473 1473 1472 1473 1473 1473 1473 1473 1473 1473 1473 1473 1473 1473 1472
1466 1465 1464 1464 1463 1463 1462 1462 1462 1462 1462 1462 1463 1463 1464 1464 1465 1465 1465 1466 1466 1466 1466 1467 1467 1468 1468 1469 1469 1469 1470 1470 1470 1470 1469 1469 1469 1469 1469 1469 1468 1468 1468
1465 1464 1464 1463 1463 1462 1462 1461 1461 1461 1461 1461 1461 1462 1462 1463 1463 1464 1464 1464 1464 1464 1464 1464 1464 1465 1465 1465 1465 1466 1466 1466 1466 1466 1465 1466 1466 1465 1465 1464 1464 1464 1464
1465 1464 1463 1462 1462 1461 1461 1461 1461 1460 1460 1460 1460 1461 1461 1461 1461 1461 1461 1461 1461 1461 1461 1461 1461 1461 1462 1462 1462 1462 1462 1462 1462 1462 1462 1462 1462 1462 1461 1460 1460 1459 1459
1464 1463 1462 1461 1461 1460 1460 1460 1460 1460 1460 1460 1459 1459 1459 1459 1459 1460 1459 1459 1459 1459 1459 1459 1459 1459 1458 1458 1458 1458 1459 1459 1459 1459 1459 1458 1458 1458 1457 1457 1456 1455 1455
1463 1462 1461 1460 1460 1459 1459 1459 1459 1459 1458 1458 1458 1458 1457 1457 1457 1457 1457 1457 1457 1457 1456 1456 1456 1455 1455 1455 1455 1455 1455 1455 1455 1455 1455 1455 1454 1454 1453 1453 1452 1452 1451
1461 1461 1460 1459 1459 1458 1457 1457 1456 1456 1456 1456 1456 1456 1455 1455 1455 1454 1454 1454 1454 1454 1453 1453 1452 1452 1452 1452 1452 1452 1451 1452 1452 1452 1451 1451 1451 1450 1450 1449 1448 1447 1447
1460 1459 1459 1458 1457 1457 1456 1456 1455 1454 1454 1453 1454 1453 1453 1452 1452 1451 1451 1451 1450 1450 1450 1450 1450 1449 1449 1449 1449 1448 1448 1448 1448 1448 1447 1447 1447 1447 1446 1445 1444 1444 1443
1458 1457 1457 1456 1456 1455 1455 1454 1453 1453 1453 1452 1451 1451 1451 1450 1450 1449 1448 1448 1447 1447 1447 1446 1446 1446 1446 1445 1445 1445 1444 1444 1444 1443 1443 1443 1443 1442 1441 1441 1440 1439 1439
1456 1456 1455 1455 1454 1453 1453 1452 1452 1451 1451 1450 1450 1449 1448 1447 1447 1446 1446 1445 1445 1444 1444 1443 1443 1443 1442 1442 1441 1441 1440 1440 1439 1439 1439 1438 1438 1438 1437 1437 1436 1435 1435
1454 1453 1453 1453 1452 1452 1451 1451 1450 1450 1449 1448 1448 1447 1447 1446 1445 1444 1443 1443 1442 1441 1441 1440 1439 1439 1438 1438 1437 1436 1436 1435 1435 1434 1434 1433 1433 1433 1433 1432 1431 1431 1431
1452 1451 1451 1450 1450 1450 1449 1449 1448 1448 1447 1446 1445 1445 1444 1443 1442 1442 1441 1440 1439 1439 1438 1437 1436 1435 1434 1434 1433 1432 1431 1431 1430 1429 1429 1428 1428 1428 1428 1427 1427 1426 1426
1450 1449 1449 1448 1448 1447 1447 1446 1446 1445 1445 1444 1443 1442 1442 1441 1440 1439 1438 1438 1437 1436 1435 1434 1432 1431 1430 1429 1429 1428 1427 1426 1425 1424 1424 1423 1423 1423 1422 1422 1422 1421 1421
1448 1447 1446 1446 1445 1445 1444 1444 1443 1443 1442 1442 1441 1440 1440 1439 1438 1437 1436 1435 1434 1432 1431 1430 1429 1428 1426 1425 1424 1423 1422 1421 1420 1419 1419 1418 1418 1417 1417 1417 1416 1416 1416
1446 1445 1444 1443 1443 1443 1442 1442 1441 1441 1440 1439 1439 1438 1437 1436 1435 1434 1433 1432 1431 1429 1428 1427 1425 1424 1422 1421 1420 1418 1417 1416 1415 1414 1413 1413 1412 1412 1411 1411 1411 1411 1411
1443 1442 1442 1441 1441 1440 1440 1439 1439 1438 1438 1437 1437 1436 1435 1434 1433 1432 1431 1429 1428 1426 1425 1423 1422 1420 1419 1417 1416 1414 1413 1411 1410 1409 1408 1407 1407 1406 1406 1406 1406 1406 1406